GFSMA_500_rhum_342.txt.gz
RH
79 61 50 50 47 42 40 46 44 48 44 42 43 38 30 28 20 15 9 7 6 5 5 4 4 6 12 16 23 27 30 28 25 19 13 13 56 77 77 72 100 100 94
66 55 55 47 47 44 36 34 32 35 41 43 39 43 37 33 30 20 17 20 11 6 5 6 5 5 10 21 22 23 28 28 14 14 20 17 31 43 69 66 88 68 63
69 80 73 64 51 38 22 16 23 23 29 29 24 31 38 39 37 33 27 24 19 15 9 5 6 6 9 20 22 22 23 23 20 10 9 18 43 36 59 54 38 29 40
85 68 41 17 12 9 7 6 5 6 5 7 9 10 11 17 40 50 35 28 17 14 15 9 7 6 7 18 23 20 24 14 21 12 3 25 48 57 56 50 44 24 23
16 8 10 10 8 5 5 5 5 4 4 4 5 5 7 10 14 30 48 45 33 22 16 17 9 7 10 16 22 18 19 19 9 12 3 6 42 61 54 65 50 29 27
7 8 10 10 10 10 10 9 10 10 9 8 6 5 5 5 7 12 21 39 36 33 25 22 19 9 12 14 22 21 14 16 12 5 3 2 20 69 37 41 28 16 22
11 14 17 19 18 19 23 22 19 18 17 15 12 10 6 5 5 5 9 16 36 32 28 35 31 20 15 17 20 23 17 9 11 8 4 3 3 32 54 46 38 30 29
17 22 26 29 31 33 34 36 34 32 34 29 18 14 12 10 7 6 5 6 11 31 27 28 36 28 24 21 21 22 20 10 7 7 4 4 4 7 48 49 43 53 61
27 28 30 32 34 35 36 34 35 37 34 31 30 30 18 15 12 9 7 5 4 9 26 24 27 26 27 25 23 20 16 12 7 6 4 4 4 5 14 47 43 49 62
15 17 21 31 37 43 47 47 46 44 44 46 33 30 33 32 19 11 11 9 5 5 8 25 21 14 21 27 24 19 16 12 8 5 4 4 4 5 15 17 36 45 52
12 14 16 20 23 27 38 45 51 46 42 45 50 39 37 40 33 29 18 12 8 5 4 10 26 13 12 20 22 15 13 10 6 4 4 4 4 5 10 22 41 41 66
11 14 14 12 13 17 23 30 38 45 52 57 51 46 45 42 38 31 30 17 12 7 5 8 18 22 10 14 16 9 9 16 8 5 4 3 3 5 7 20 45 54 79
44 26 17 11 11 11 14 19 22 27 34 42 49 46 45 54 46 32 32 33 16 9 6 6 13 22 17 9 9 8 12 23 8 5 4 3 3 6 5 21 44 59 58
98 100 100 98 82 58 44 42 37 31 28 42 72 57 47 49 62 41 34 30 29 16 8 6 11 16 20 13 8 8 10 16 8 4 4 3 4 6 6 27 62 53 95
99 100 100 100 100 100 99 97 100 100 95 53 77 96 80 53 59 64 41 32 30 25 11 7 8 15 17 14 9 8 6 5 4 4 4 3 4 5 22 37 78 58 80
16 24 37 66 92 99 100 100 100 100 100 100 91 93 97 96 55 69 54 34 32 27 22 8 7 14 17 12 10 8 6 5 4 4 4 3 4 6 10 38 88 73 94
21 24 25 26 28 33 34 42 70 87 100 98 100 99 93 98 84 60 67 46 38 28 24 11 6 11 17 14 10 8 6 5 4 4 4 4 4 6 31 48 78 95 97
32 30 29 31 34 36 37 37 37 32 66 99 97 100 99 96 95 67 69 62 49 30 24 16 6 9 18 18 11 8 6 4 4 4 4 5 4 3 43 61 98 97 98
34 44 50 58 57 53 54 57 37 37 41 28 92 100 100 100 93 100 72 68 57 30 22 15 7 8 18 18 11 8 8 4 4 4 4 5 4 3 14 90 98 98 97
54 75 74 66 58 56 66 66 69 69 60 48 35 84 100 100 99 100 80 71 64 36 24 21 8 7 17 19 15 7 6 5 5 4 5 6 12 25 52 90 97 97 97
46 74 66 65 72 82 86 84 76 63 61 71 46 35 97 100 100 99 88 56 73 48 31 23 9 9 17 19 17 9 7 6 5 4 6 6 6 21 27 65 98 98 96
58 66 87 93 91 100 94 82 59 45 57 94 72 42 55 100 99 94 83 51 86 53 42 28 9 10 16 18 17 10 7 6 4 5 6 6 23 57 55 37 97 96 97
72 91 100 100 100 82 95 95 100 100 100 100 96 49 36 100 100 100 50 62 94 57 40 32 12 8 15 17 17 9 7 5 4 9 6 7 6 14 47 94 97 97 97
89 99 93 87 94 96 82 100 100 100 100 100 85 60 34 99 100 99 43 79 100 60 33 32 8 7 12 16 16 11 6 5 4 6 10 17 18 18 80 96 97 97 98
80 49 86 100 86 51 99 100 100 97 96 97 98 74 35 99 100 100 56 90 92 42 35 36 10 7 13 16 15 8 6 5 4 8 11 25 42 76 93 98 96 98 98
54 75 76 68 75 82 93 98 98 100 95 89 86 62 39 100 100 100 100 100 76 45 37 34 12 7 16 15 13 8 6 5 5 7 11 44 69 96 95 97 98 98 96

GFSMA_500_rhum_348.txt.gz
RH
48 41 54 93 77 61 63 60 64 61 56 53 46 39 35 23 13 10 8 10 9 7 7 8 9 8 8 8 8 6 10 19 26 29 23 14 23 46 63 84 53 53 60
64 49 86 92 67 69 72 59 58 55 58 62 59 52 47 42 34 35 26 16 18 15 8 7 8 8 8 8 8 9 10 17 24 32 31 23 14 20 40 83 86 63 62
73 47 56 58 63 66 66 57 50 49 50 48 57 55 47 42 42 42 41 33 34 25 18 11 8 8 7 8 8 9 13 16 26 29 31 38 34 32 19 61 97 90 62
92 81 67 72 62 70 68 45 10 7 9 20 36 36 29 29 35 36 40 38 42 32 26 21 15 9 8 8 8 9 12 17 24 24 18 36 53 54 46 53 80 99 96
68 67 74 84 72 19 8 7 8 12 13 12 6 9 11 11 13 27 40 40 39 39 32 31 26 18 9 8 8 9 10 17 23 27 20 28 29 56 63 39 29 70 93
64 49 37 8 8 14 15 13 12 13 22 25 16 7 6 6 6 8 13 27 35 35 34 34 34 25 19 9 8 10 10 11 21 25 27 23 32 33 46 42 24 44 53
11 8 11 13 13 16 20 22 22 24 26 29 31 26 9 6 5 5 5 6 12 18 36 44 38 29 24 20 11 10 12 14 19 20 19 20 33 33 43 96 72 54 71
11 11 10 10 11 11 13 15 18 21 24 25 29 36 38 28 18 14 7 5 5 8 11 34 44 38 29 24 21 12 12 14 18 20 18 14 19 26 38 52 89 60 66
9 8 8 8 8 8 9 10 11 12 15 21 27 31 37 36 31 23 18 12 7 5 6 10 44 44 34 23 23 20 15 17 18 20 16 20 11 21 22 66 75 62 52
36 30 18 13 10 9 8 10 10 10 12 16 24 28 32 37 40 36 31 21 12 8 5 8 20 48 45 31 19 22 17 20 19 18 16 20 12 10 27 57 86 60 48
100 97 100 92 64 24 10 9 10 8 8 11 17 24 27 32 34 39 41 37 19 11 6 5 9 28 48 43 28 25 22 23 20 19 15 15 13 4 6 43 77 77 75
100 100 100 98 94 91 83 52 22 20 12 8 11 17 25 28 37 35 44 38 31 16 10 6 8 13 37 38 35 26 25 26 20 18 13 11 9 5 3 18 55 71 86
36 40 25 20 40 66 88 89 86 63 40 23 8 10 17 23 28 31 35 39 41 30 12 7 6 8 27 35 33 32 30 25 22 18 15 9 8 5 3 9 47 35 60
10 8 8 7 7 7 7 17 61 90 88 72 44 9 12 18 24 29 33 33 39 38 24 10 6 7 12 32 27 32 34 28 22 15 10 12 6 4 4 8 75 39 33
10 10 11 10 10 10 9 8 7 8 56 96 94 53 11 14 20 24 29 30 38 40 34 16 8 6 6 27 26 28 33 33 23 13 9 12 7 4 4 5 36 55 62
18 19 19 16 18 23 22 19 16 10 8 47 98 97 49 14 18 25 28 30 37 36 34 24 12 7 6 16 27 24 28 28 24 10 8 9 11 4 4 8 62 61 91
26 28 28 30 30 25 36 37 32 27 14 16 84 100 100 46 18 23 32 33 34 39 30 30 16 9 6 10 24 24 21 21 21 10 7 7 6 4 4 4 53 53 74
37 36 37 38 37 33 26 36 35 33 28 21 64 100 100 97 30 22 29 40 37 42 31 30 18 10 6 8 21 24 14 17 14 10 7 6 5 4 4 4 31 94 67
22 18 16 18 24 26 26 29 50 43 35 29 50 100 100 100 82 35 28 34 42 43 38 32 22 11 8 8 20 21 11 12 14 12 7 5 5 4 4 4 42 54 72
42 53 24 20 38 56 27 36 72 72 38 35 36 96 100 100 100 65 29 29 47 43 50 33 27 14 8 10 21 20 12 11 10 10 6 5 5 4 4 4 54 67 92
26 42 82 51 27 43 67 68 78 83 69 36 39 41 100 100 100 98 40 36 56 50 55 34 28 17 8 10 23 18 13 10 9 8 6 5 5 4 4 7 22 81 93
63 41 37 62 88 48 46 90 67 76 74 55 46 39 90 100 100 100 66 55 80 61 61 36 26 16 8 12 24 18 12 9 8 7 6 6 5 5 5 19 62 76 97
98 78 62 59 61 86 88 93 86 66 65 55 50 34 66 100 100 100 77 73 90 64 66 35 25 14 8 16 24 16 11 9 8 7 7 7 5 4 16 52 97 82 92
100 100 85 53 94 85 94 98 100 93 68 66 59 34 52 100 100 100 90 89 93 66 61 36 29 11 8 21 24 15 10 8 7 6 6 5 5 6 18 55 83 66 91
100 100 100 91 93 100 100 100 100 96 82 69 62 53 46 98 100 100 96 100 88 72 55 30 20 8 12 24 21 14 9 7 6 6 5 9 6 6 5 13 32 58 95
100 100 100 99 100 100 100 100 92 87 79 76 68 62 51 93 100 100 99 100 84 72 50 25 10 8 19 24 21 14 8 7 6 5 5 5 7 18 29 31 36 52 96

GFSMA_500_rhum_354.txt.gz
RH
27 17 14 15 33 56 34 20 13 9 20 22 23 16 24 21 11 5 4 3 3 4 5 5 6 11 10 8 6 6 6 6 6 6 10 17 24 36 79 52 52 50 78
35 28 24 17 14 14 14 14 96 39 74 46 76 55 46 44 34 30 20 13 6 4 3 5 5 6 10 10 9 7 7 7 7 6 8 14 20 28 46 54 50 87 91
69 83 73 58 61 74 68 40 48 31 57 51 66 58 61 54 46 41 40 36 31 16 7 4 5 5 6 9 10 9 8 7 8 7 8 10 26 31 28 57 50 45 66
87 85 86 92 93 86 74 82 82 76 80 73 71 62 60 58 51 43 41 40 37 36 23 11 6 7 7 7 10 10 9 8 8 8 10 9 36 53 33 40 42 45 58
79 71 66 76 80 75 77 75 77 80 74 63 62 63 65 56 45 41 38 38 34 31 39 27 15 9 10 9 8 9 10 9 9 9 10 12 28 54 57 47 45 34 27
6 5 8 19 36 55 81 83 77 81 73 55 58 51 34 20 13 9 8 8 7 5 36 40 33 24 13 13 12 10 9 10 10 10 11 12 13 49 52 90 59 62 32
5 8 8 9 9 9 11 16 28 28 41 25 9 9 8 10 10 12 13 14 13 8 12 51 40 37 34 16 21 15 10 10 11 11 13 13 13 18 29 57 95 96 43
12 10 10 10 9 9 9 10 10 10 10 11 11 12 12 13 15 14 14 18 18 16 11 25 39 36 38 33 19 24 17 10 11 13 15 15 14 20 21 65 91 95 80
89 81 78 70 65 55 40 22 14 10 9 10 12 13 14 14 19 22 25 27 27 24 15 8 21 25 35 37 36 27 26 16 11 13 16 18 16 21 21 52 97 82 75
100 100 100 100 100 100 100 100 93 72 28 14 10 10 12 12 14 21 24 25 29 29 17 8 13 14 27 41 37 35 27 27 14 14 15 20 20 23 23 29 73 56 55
99 100 100 100 100 100 100 100 100 97 97 89 62 25 12 12 11 14 18 19 33 36 22 8 7 11 15 38 44 36 33 25 27 14 18 18 19 20 25 27 54 95 81
6 20 57 100 98 95 95 100 100 100 100 100 98 90 34 15 12 13 15 21 35 38 30 13 6 6 8 15 30 38 39 29 29 21 18 19 20 16 23 23 58 94 89
11 11 11 11 16 27 38 67 82 100 100 94 61 97 99 43 12 12 13 22 32 39 34 23 14 7 5 5 10 22 40 41 30 30 17 20 22 15 17 17 33 92 97
28 28 28 26 24 21 16 22 31 35 54 89 93 52 90 100 45 10 12 17 23 32 32 25 22 16 10 6 5 10 28 46 37 32 21 21 22 18 12 14 14 64 96
31 37 40 43 48 45 30 23 19 29 29 33 45 49 20 77 97 21 9 15 19 26 29 29 30 24 18 11 7 8 19 46 42 33 28 20 21 20 10 14 13 21 96
31 36 40 38 40 63 58 49 28 30 24 19 17 16 10 8 75 86 11 11 17 23 28 29 28 29 26 15 10 10 20 43 45 34 28 20 20 20 8 13 13 22 97
37 43 48 56 96 77 66 67 33 46 32 21 16 11 9 8 6 65 67 10 14 20 26 28 30 30 26 16 11 11 20 47 45 34 25 23 20 19 8 9 11 8 42
100 100 100 100 100 90 80 77 40 44 47 33 20 15 12 8 7 6 82 39 13 18 23 28 32 32 26 15 11 10 18 42 45 42 25 23 22 16 7 6 6 4 11
100 100 100 97 100 98 87 89 66 38 48 48 36 22 16 11 8 6 33 87 23 16 20 26 27 31 22 13 10 9 16 33 39 42 32 26 24 14 7 6 5 4 7
100 100 100 100 100 100 89 87 64 36 48 45 42 32 23 15 10 7 14 98 62 18 22 25 26 31 20 14 8 7 14 28 28 34 34 29 27 12 7 6 4 4 18
100 100 100 100 100 100 94 76 43 29 46 47 40 38 28 22 13 10 11 98 89 21 26 27 27 34 21 16 8 6 10 27 27 26 36 32 28 14 8 6 4 4 16
100 100 100 100 100 93 84 51 70 67 46 45 41 41 35 33 18 12 15 100 100 29 30 36 35 37 23 18 13 7 8 24 26 23 34 34 25 15 9 6 5 4 19
96 99 100 100 95 69 51 80 99 36 24 29 42 41 38 37 25 15 26 100 99 28 31 46 44 38 23 18 13 7 7 18 25 20 28 31 19 13 8 7 5 4 9
96 96 100 100 99 98 88 100 41 25 28 29 36 36 42 39 29 17 51 100 92 29 36 45 42 37 21 17 11 9 6 17 23 18 21 27 17 13 7 7 6 7 84
74 88 100 100 100 93 100 75 52 37 30 31 39 58 55 34 28 17 96 100 86 40 46 52 48 34 22 15 10 9 6 17 21 15 19 23 20 9 6 6 5 4 8
75 100 100 100 100 100 95 66 82 77 79 98 98 59 37 33 32 95 100 100 65 50 62 57 48 30 24 15 10 8 8 20 20 13 14 16 13 7 6 6 5 5 32

GFSMA_500_rhum_357.txt.gz
RH
79 73 64 51 40 33 29 30 20 18 20 9 6 6 6 5 4 4 4 3 3 3 3 5 5 5 10 12 9 6 5 5 6 6 10 7 44 39 48 87 58 38 60
73 64 55 56 53 46 46 39 32 23 19 22 14 17 22 16 17 9 7 6 4 3 3 3 4 5 5 10 12 9 6 6 6 7 7 15 45 35 31 57 87 66 47
62 64 62 62 67 66 68 65 58 50 70 69 42 66 42 55 47 47 38 27 18 9 5 4 4 4 6 6 9 11 9 7 7 7 8 8 18 18 29 36 49 59 57
59 60 79 90 91 76 69 68 74 80 75 77 80 32 42 49 62 55 55 46 36 34 32 20 8 5 5 7 7 10 11 9 8 8 8 9 7 21 17 53 36 53 62
10 14 28 46 77 75 59 57 62 77 78 72 71 74 70 73 67 63 52 45 40 40 38 33 31 24 10 6 9 8 11 11 10 9 9 11 10 14 43 70 43 29 56
5 8 7 5 7 8 7 8 11 35 57 68 76 66 72 71 66 66 63 55 43 37 35 37 36 31 27 14 8 10 9 11 11 10 10 10 12 22 57 63 80 42 44
11 18 20 14 11 7 7 8 7 8 9 32 49 90 75 70 68 72 65 51 42 32 25 29 35 27 23 25 14 11 13 10 12 12 11 13 14 15 47 71 71 68 50
91 84 83 82 72 41 18 11 10 10 10 10 16 37 71 67 55 36 31 20 12 12 9 7 9 10 7 35 28 15 15 14 12 13 12 14 14 16 42 65 74 97 90
94 86 74 91 93 90 91 93 80 48 31 14 10 10 10 14 19 15 9 10 11 12 12 12 12 11 6 33 39 32 20 20 15 13 13 16 17 16 15 35 62 76 97
8 7 6 6 30 88 100 100 100 96 100 83 55 14 10 10 12 12 12 13 14 16 15 19 18 18 15 13 46 41 36 27 28 14 15 16 18 21 24 60 61 63 89
8 8 8 8 8 7 12 71 100 100 99 95 88 87 63 19 10 12 12 12 16 21 23 26 26 24 21 12 34 43 41 27 34 26 14 18 20 17 20 24 51 82 96
10 10 11 10 12 12 11 11 43 100 100 100 95 86 88 85 54 11 10 10 12 16 21 25 24 28 23 11 17 28 47 38 39 35 18 19 18 17 18 21 30 72 97
17 19 19 19 19 22 24 23 19 17 58 98 100 100 95 95 94 70 14 9 10 10 13 18 24 35 21 10 14 17 46 46 46 38 30 18 17 21 19 20 22 58 88
24 29 29 26 25 28 31 34 35 32 26 17 15 50 98 96 100 98 71 17 9 9 11 19 36 41 24 9 12 15 30 50 49 47 32 22 17 23 21 19 23 25 75
44 52 54 48 41 30 34 38 40 41 38 32 26 13 38 92 97 94 98 62 11 9 11 30 40 38 18 9 7 10 18 33 43 48 36 28 19 24 22 17 14 20 39
67 89 97 98 99 93 53 39 39 40 36 46 36 23 14 69 88 95 82 93 28 8 12 31 34 29 25 14 8 6 6 14 25 49 42 30 24 25 22 19 11 13 20
100 100 100 100 100 100 100 100 95 92 84 75 46 37 19 24 59 96 82 82 52 9 13 23 32 34 32 25 18 11 6 5 11 36 50 36 30 25 22 20 11 7 15
88 54 47 94 100 100 100 100 100 98 87 81 60 49 28 22 33 52 85 56 74 11 13 20 27 30 30 26 24 20 11 7 6 19 51 39 34 27 24 19 10 6 8
39 44 67 100 100 100 100 100 100 100 100 75 72 43 38 27 18 23 60 30 90 17 13 18 24 28 30 29 26 24 16 10 6 11 52 44 35 29 25 16 9 6 6
44 88 100 100 100 100 100 100 100 100 96 85 66 41 45 29 17 12 16 13 91 44 13 19 24 27 31 32 30 24 14 12 10 17 50 45 34 31 25 14 8 6 6
50 100 100 100 100 100 100 100 100 100 87 93 68 44 48 34 19 12 10 11 34 87 13 17 22 26 29 32 28 16 14 14 16 32 45 41 33 31 25 14 8 6 5
52 84 100 100 100 100 100 98 92 91 90 94 61 44 49 40 21 13 10 10 9 97 38 16 24 26 26 31 21 13 11 15 19 36 41 43 34 33 25 15 8 6 4
82 90 100 100 96 93 85 79 84 84 80 73 44 44 51 47 25 15 12 8 7 70 77 16 26 29 28 28 18 11 9 12 18 30 34 41 37 34 24 14 7 6 4
100 100 100 100 97 96 81 57 59 57 37 36 39 47 48 49 26 16 13 8 7 71 85 14 21 25 30 24 18 11 7 8 15 28 27 34 38 35 21 11 7 6 4
100 100 100 100 100 100 100 100 81 73 62 52 51 48 45 40 25 20 13 9 8 88 84 15 24 30 34 23 18 16 7 6 13 28 24 28 35 31 19 10 8 6 4
81 92 97 88 60 52 45 34 28 25 26 34 47 47 44 34 30 23 13 10 40 100 63 23 35 38 37 22 20 16 10 6 11 26 21 26 30 26 16 10 7 6 6

GFSMA_500_rhum_363.txt.gz
RH
95 90 77 83 85 88 88 87 79 67 62 57 55 52 50 45 38 30 13 8 6 6 5 5 5 6 5 6 6 11 11 6 4 4 4 4 4 87 95 75 94 80 65
43 47 44 47 50 57 59 59 62 64 63 57 51 46 42 38 36 34 32 25 15 7 5 4 4 4 4 4 5 6 11 11 6 5 5 4 5 93 96 86 89 96 80
59 52 44 51 55 49 51 47 41 40 43 54 56 49 49 42 34 32 26 19 18 12 7 4 4 4 4 3 3 4 6 11 11 6 5 5 6 78 96 86 65 83 83
16 15 18 35 33 55 52 46 37 17 12 14 16 50 56 56 44 53 48 44 32 18 10 5 4 4 4 4 4 3 4 6 12 10 6 6 6 32 41 56 64 69 65
7 6 5 5 6 5 5 5 5 5 4 6 5 6 20 56 55 54 57 58 59 43 21 12 7 5 4 4 4 4 3 5 7 12 10 6 6 10 29 30 70 65 59
5 6 9 8 10 16 10 14 16 10 4 4 6 7 7 6 32 43 32 40 61 65 39 18 28 21 15 10 6 4 4 3 6 8 12 9 7 7 20 48 44 66 96
77 84 80 80 84 90 96 100 100 95 80 71 54 44 18 8 5 8 15 14 11 39 65 41 48 48 49 33 22 10 5 4 4 6 10 12 9 8 9 30 45 50 94
74 74 71 62 48 28 20 40 92 100 97 100 97 96 82 61 13 5 4 4 4 14 62 60 44 56 62 49 40 34 16 7 5 6 8 12 12 9 10 11 27 48 50
68 49 44 34 23 28 24 10 7 10 34 93 100 97 88 74 82 36 8 6 7 8 44 58 59 57 62 57 47 52 36 22 14 6 6 10 14 12 11 12 14 38 48
60 58 56 66 35 13 11 15 11 8 7 8 20 33 97 91 82 74 47 12 9 8 13 40 57 59 56 57 50 50 48 43 33 22 7 9 12 14 13 12 12 27 46
47 32 13 12 12 13 13 13 12 9 8 11 12 12 26 82 100 93 76 76 25 10 9 18 53 60 60 55 50 46 42 39 39 29 23 8 10 14 14 12 11 26 53
14 14 17 22 20 20 15 14 14 14 13 13 13 12 11 33 89 100 75 83 93 52 11 8 32 58 62 55 48 46 40 30 25 30 24 18 11 12 13 14 12 21 60
53 71 78 78 75 70 80 75 35 15 18 17 15 15 14 14 27 85 99 87 92 95 52 11 9 18 46 48 47 37 28 28 24 16 20 23 15 14 13 15 15 14 36
63 67 75 81 86 87 92 100 100 98 63 24 24 22 23 19 26 36 45 75 91 99 97 53 10 9 10 15 28 19 13 11 11 9 11 31 20 16 15 16 16 16 19
58 53 45 34 33 66 100 100 100 100 100 100 43 26 30 28 21 17 16 15 92 100 100 95 49 10 10 11 10 12 13 12 12 12 10 44 34 16 21 16 18 17 20
18 15 16 26 47 82 100 100 100 100 100 100 100 48 28 35 25 20 17 13 40 100 100 100 89 32 10 11 11 12 16 18 18 15 12 29 45 26 27 20 18 18 20
21 22 48 93 100 100 100 98 99 100 100 100 100 100 31 40 35 22 23 19 20 94 100 100 94 74 14 9 10 12 15 20 22 21 19 16 43 40 36 29 20 20 18
32 39 37 77 86 78 67 58 76 78 66 63 98 100 87 53 59 28 30 28 23 31 83 100 96 90 58 14 9 10 11 13 15 16 16 19 22 47 38 39 24 22 20
41 64 49 65 85 89 78 83 59 55 58 50 44 86 100 67 80 36 36 29 28 21 27 94 99 98 96 30 11 11 11 15 21 23 25 21 17 50 40 47 30 26 22
49 70 82 54 73 86 90 100 100 100 100 90 58 85 100 98 96 43 44 32 29 23 20 46 100 98 99 44 13 13 27 39 33 18 14 16 21 56 44 52 35 29 23
50 69 87 67 66 71 82 98 100 100 100 100 100 100 100 100 96 53 48 38 35 32 19 17 100 100 98 34 12 28 36 28 17 12 13 20 38 56 51 51 42 32 26
48 71 87 78 55 85 78 90 100 100 100 100 100 100 100 100 100 73 59 37 34 33 21 18 100 100 88 20 22 27 25 17 12 12 18 20 35 50 52 55 47 35 28
56 77 100 96 62 78 74 78 93 100 100 100 100 100 100 100 100 85 66 45 45 39 21 22 99 100 63 17 24 28 21 19 18 14 9 16 26 38 48 53 43 34 28
64 76 95 100 70 52 96 53 76 94 100 100 100 100 99 100 100 100 97 77 62 35 19 31 100 100 34 19 28 33 35 35 30 24 15 7 8 20 38 52 44 43 32
96 83 68 98 99 36 64 61 65 80 100 100 100 100 99 97 92 98 96 76 45 31 18 50 96 68 32 19 30 35 38 38 32 26 23 20 11 8 23 57 46 41 31
100 97 72 93 100 34 52 66 63 80 89 100 100 100 100 100 100 89 66 50 37 24 17 76 100 95 54 19 29 34 34 32 31 28 22 16 13 8 17 57 48 42 32